Location: Oak Glen
(34.0495°N, 116.9470°E)
Time: 01:56:52
(UTC-08:00)

OTV 5 (USA 277) - Pass Details

Date: 11 October 2017
Orbit: 404 x 417 km, 43.0° (Epoch: 07 September)

Event Time Altitude Azimuth Distance (km) Brightness Sun altitude
Rises 05:08:15 0° 283° (WNW) 2,347 ? -30.7°
Reaches altitude 10° 05:10:46 10° 302° (WNW) 1,485 ? -31.2°
Enters shadow 05:10:58 11° 304° (NW) 1,426 ? -31.2°
